{"data":{"norad_id":53273,"intl_designator":"2022-086AH","name":"STARLINK-4051","alt_names":[],"object_type":"PAYLOAD","status":"ACTIVE","operator":null,"country":"US","launch_date":"2022-07-24","launch_site_code":"AFETR","launch_vehicle":null,"mission":null,"orbit_class":"UNKNOWN","rcs_meters":null,"size_class":null,"mass_kg":null,"dimensions":null,"purposes":["comms"],"wikipedia_slug":null,"has_3d_model":false,"image_url":null,"decayed_at":null,"tle_current":{"epoch":"2026-09-19T23:24:20.207232Z","epoch_age_seconds":120738,"freshness":"FRESH","line1":"1 53273U 22086AH  26262.97523388 -.00002442  00000+0 -61171-4 0  9994","line2":"2 53273  53.1616  16.5287 0001529 138.6306 221.4812 15.34396547230739","mean_motion":15.34396547,"eccentricity":0.0001529,"inclination_deg":53.1616,"raan_deg":16.5287,"arg_perigee_deg":138.6306,"mean_anomaly_deg":221.4812,"bstar":-6.1171e-5,"rev_number":23073,"period_min":93.847969275963,"perigee_km":461.66753722809,"apogee_km":463.75946931199,"semimajor_km":6840.85050327,"source":"CELESTRAK","updated_at":"2026-09-20T09:00:40.218278Z"}}}